Terminal Aerodrome Forecast
Issued by NWS Topeka, KS

Home | Current Version | Previous Version | Text Only | Print | Product List | Glossary Off
Versions: 1 2 3 4 5 6 7 8 9 10 11 12 13 14 15 16 17 18 19 20

000
FTUS43 KTOP 240800 AAA
TAFTOP
TAF AMD
KTOP 240803Z 2408/2506 15006KT P6SM -SHRA OVC025
     FM241000 14010KT P6SM VCSH OVC022
     FM241600 15014G20KT P6SM OVC016
     FM242000 16014G22KT P6SM SCT020 BKN035
      TEMPO 2502/2506 1SM TSRA BKN022CB=

USA.gov is the U.S. government's official web portal to all federal, state and local government web resources and services.